Starlink 31778

operational
NORAD ID: 59602 Int'l Des: 2024-080 Owner: SPXS Country: US Constellation: starlink
LEOCIRCULAR

Starlink 31778について

説明を読み込み中...

リアルタイム位置

3D地球を読み込み中...

次回通過

高度履歴

Altitude vs Time

uPlot chart will show altitude changes over time

軌道要素

1 59602U 24080B 25257.43763346 .00003709 00000-0 14429-3 0 9995
2 59602 43.0058 310.1377 0000990 278.8249 81.2490 15.27568572 77617
Epoch: Sep 14, 2025 • Age: 34 hours

現在のステータス

高度 492.2 km
速度 7.62 km/s
衛星直下点 -34.61°S, 52.11°W
打ち上げ日 Apr 28, 2024
運用期間 1.3 years
タイプ internet

技術仕様

分類 Payload
質量 730.00 kg
乾燥質量 700.00 kg
総質量 730.00 kg
長さ 0.30 m
直径 4.10 m
スパン 29.00 m
形状 Box + pan
製造者 SPXS
バスタイプ Starlink V2M
フェーズステータス In Orbit
所有者/国 SPXS/US

大規模コンステレーション

Loading constellations...